Miscellaneous Local Product
Issued by NWS Hastings, NE

Home | Current Version | Previous Version | Graphics & Text | Print | Product List | Glossary On
Versions: 1 2 3 4 5 6 7 8 9 10 11 12 13 14 15 16 17 18 19 20 21 22 23 24 25 26 27 28 29 30 31 32 33 34 35 36 37 38 39 40 41 42 43 44 45 46 47 48 49 50
000
AXUS43 KGID 141131
MISGRI

GID CWA HOURLY WEATHER ROUNDUP
NATIONAL WEATHER SERVICE HASTINGS NE
600 AM CDT MON APR 14 2014

NOTE: "FAIR" INDICATES FEW OR NO CLOUDS BELOW 12,000 FEET WITH NO
SIGNIFICANT WEATHER AND/OR OBSTRUCTIONS TO VISIBILITY.

...SOUTH CENTRAL NEBRASKA...

CITY           SKY/WX    TMP DP  RH WIND       PRES   REMARKS
GRAND ISLAND   CLOUDY    27  18  69 N22       30.17R WCI  13
HASTINGS       CLOUDY    28  18  66 N22G29    30.14R WCI  14
ORD            CLOUDY    25  15  66 N18       30.17R WCI  11
YORK           CLOUDY    27  19  74 N17G29    30.14R WCI  14
AURORA         CLOUDY    28  19  70 N24       30.14S WCI  13
LEXINGTON      CLOUDY    28  18  68 N14       30.20R WCI  16
HOLDREGE       CLOUDY    27  18  69 N16       30.18R WCI  14

...NEBRASKA PANHANDLE...

CITY           SKY/WX    TMP DP  RH WIND       PRES   REMARKS
CHADRON        CLEAR     22  17  81 W13       30.23F WCI  10
ALLIANCE       PTCLDY    12   9  87 W8        30.21S WCI   0
SCOTTSBLUFF    PTCLDY    17  14  88 NW7       30.25S WCI   8
SIDNEY         PTCLDY    22  18  85 NW13      30.22S WCI  10

...WESTERN AND NORTH CENTRAL NEBRASKA...

CITY           SKY/WX    TMP DP  RH WIND       PRES   REMARKS
VALENTINE      CLEAR     19  14  81 W5        30.20F WCI  12
AINSWORTH      PTCLDY    21  15  77 NW6       30.19S WCI  13
ONEILL         MOCLDY    24  15  66 NW13      30.19R WCI  13
BROKEN BOW     CLOUDY    24  14  65 N15       30.17R WCI  11
IMPERIAL       CLOUDY    26  18  71 NW12      30.23R WCI  16
NORTH PLATTE   MOCLDY    26  15  63 NW10      30.21R WCI  16
MCCOOK         CLOUDY    28  17  63 N10       30.23R WCI  19

...EASTERN NEBRASKA...

CITY           SKY/WX    TMP DP  RH WIND       PRES   REMARKS
NORFOLK        CLOUDY    26  15  63 NW21G30   30.12R WCI  12
SO SIOUX CITY  CLOUDY    27  17  66 N24       30.09R WCI  12
TEKAMAH        CLOUDY    29  17  61 N22G32    30.08R WCI  15
COLUMBUS       CLOUDY    27  16  63 N24G30    30.12R WCI  12
ALBION         CLOUDY    26  15  61 N16G24    30.15R WCI  14
OMAHA EPPLEY   CLOUDY    28  18  66 N32G41    30.05R WCI  12
OFFUTT AFB     PTCLDY    29  19  65 NW24G31   30.05R WCI  15
MILLARD        CLOUDY    29  17  60 NW15G23   30.08R WCI  18
LINCOLN        CLOUDY    30  19  63 N23G33    30.10R WCI  17
NEBRASKA CITY  CLOUDY    30  22  71 N20G25    30.05R WCI  17
BEATRICE       CLOUDY    30  22  71 N24G30    30.09S WCI  16
FALLS CITY     CLOUDY    31  32 100 NW17G30   30.03R WCI  19

...NORTHERN KANSAS...

CITY           SKY/WX    TMP DP  RH WIND       PRES   REMARKS
GOODLAND       LGT SNOW  25  22  88 N20       30.22S FOG     WCI  11
HILL CITY      CLOUDY    30  18  60 N21G33    30.21R WCI  17
PHILLIPSBURG   CLOUDY    30  18  59 NW23G30   30.20R WCI  17
SMITH CENTER   CLOUDY    28  19  69 N21       30.17R WCI  15
BELOIT         CLOUDY    30  19  64 N24G30    30.14R WCI  16
HAYS           CLOUDY    32  19  59 N22G28    30.18R WCI  19
RUSSELL        CLOUDY    32  20  61 N23G35    30.13R WCI  19
CONCORDIA      CLOUDY    30  20  66 N20G35    30.12R WCI  17
SALINA         LGT RAIN  33  23  66 N23G38    30.12R WCI  21
TOPEKA         LGT SNOW  33  28  81 NW18G29   30.02R WCI  22



USA.gov is the U.S. government's official web portal to all federal, state and local government web resources and services.